Flight Track Log - Related Links

Times and Time Zones

All times are in EDT time to prevent confusion due to time zone crossing. See the DAL1005 flight status page for this flight to view local times or setup timezone preferences in your user account.

Time Position Orientation Groundspeed Altitude Reporting Facility
EDT Latitude Longitude Course Direction KTS MPH feet Rate Location/Type
Mon 07:37:47 PM 35.2269 -80.9572 52° Northeast 152 175 1,900  Level Atlanta Center
Mon 07:38:18 PM 35.2478 -80.9597 354° North 174 200 3,100 2,400 Climbing FAA TRACON SMA TRACON (SMA)
Mon 07:38:37 PM 35.2619 -80.9742 320° Northwest 201 231 3,900 2,550 Climbing FAA TRACON SMA TRACON (SMA)
Mon 07:38:58 PM 35.2786 -80.9911 320° Northwest 228 262 4,800 2,341 Climbing FAA TRACON SMA TRACON (SMA)
Mon 07:39:18 PM 35.2992 -80.9944 352° North 258 297 5,500 3,300 Climbing FAA TRACON SMA TRACON (SMA)
Mon 07:39:38 PM 35.3269 -80.9875 12° North 267 307 7,000 3,900 Climbing FAA TRACON SMA TRACON (SMA)
Mon 07:39:58 PM 35.3500 -80.9817 12° North 274 315 8,100 3,538 Climbing FAA TRACON SMA TRACON (SMA)
Mon 07:40:00 PM 35.1224 -81.2167 North  Level FlightAware Approximate
Mon 07:40:17 PM 35.3742 -80.9758 11° North 284 327 9,300  Level FAA TRACON SMA TRACON (SMA)
Mon 07:40:38 PM 35.4047 -80.9681 12° North 294 338 10,700 3,073 Climbing FAA TRACON SMA TRACON (SMA)
Mon 07:40:58 PM 35.4308 -80.9611 12° North 312 359 11,400 2,250 Climbing FAA TRACON SMA TRACON (SMA)
Mon 07:41:00 PM 35.2394 -81.2167 North  Level FlightAware Approximate
Mon 07:41:18 PM 35.4586 -80.9542 12° North 329 379 12,200  Level FAA TRACON SMA TRACON (SMA)
Mon 07:41:38 PM 35.4958 -80.9450 11° North 354 407 13,100 2,923 Climbing FAA TRACON SMA TRACON (SMA)
Mon 07:41:57 PM 35.5269 -80.9372 12° North 365 420 14,100 2,850 Climbing FAA TRACON SMA TRACON (SMA)
Mon 07:42:00 PM 35.3114 -81.1227 52° Northeast  Level FlightAware Approximate
Mon 07:42:18 PM 35.5583 -80.9289 12° North 376 433 15,000  Level FAA TRACON SMA TRACON (SMA)
Mon 07:42:38 PM 35.5986 -80.9186 12° North 383 441 16,200 3,150 Climbing FAA TRACON SMA TRACON (SMA)
Mon 07:42:58 PM 35.6314 -80.9100 12° North 389 448 17,100 2,400 Climbing FAA TRACON SMA TRACON (SMA)
Mon 07:43:00 PM 35.3833 -81.0097 52° Northeast  Level FlightAware Approximate
Mon 07:43:18 PM 35.6647 -80.9019 11° North 395 455 17,800  Level FAA TRACON SMA TRACON (SMA)
Mon 07:43:37 PM 35.7067 -80.8908 12° North 399 459 18,900 3,000 Climbing FAA TRACON SMA TRACON (SMA)
Mon 07:43:58 PM 35.7411 -80.8853 North 404 465 19,800 2,341 Climbing FAA TRACON SMA TRACON (SMA)
Mon 07:44:18 PM 35.7758 -80.8903 353° North 413 475 20,500 2,400 Climbing FAA TRACON SMA TRACON (SMA)
Mon 07:44:38 PM 35.8200 -80.8950 355° North 415 478 21,400 2,250 Climbing FAA TRACON SMA TRACON (SMA)
Mon 07:44:58 PM 35.8558 -80.8983 356° North 419 482 22,000 1,857 Climbing FAA TRACON SMA TRACON (SMA)
Mon 07:45:20 PM 35.9019 -80.9036 355° North 428 493 22,700 1,395 Climbing FAA TRACON SMA TRACON (SMA)
Mon 07:45:41 PM 35.9389 -80.9086 354° North 432 497 23,000 474 Climbing FAA TRACON SMA TRACON (SMA)
Mon 07:45:58 PM 35.9758 -80.9128 355° North 432 497 23,000  Level FAA TRACON SMA TRACON (SMA)
Mon 07:46:18 PM 36.0128 -80.9164 355° North 432 497 23,000 150 Level FAA TRACON SMA TRACON (SMA)
Mon 07:46:38 PM 36.0594 -80.9214 355° North 434 499 23,100 923 Climbing FAA TRACON SMA TRACON (SMA)
Mon 07:46:57 PM 36.0969 -80.9253 355° North 437 503 23,600 1,350 Climbing FAA TRACON SMA TRACON (SMA)
Mon 07:47:18 PM 36.1158 -80.9281 353° North 438 504 24,000 2,045 Climbing FAA TRACON SMA TRACON (SMA)
Mon 07:47:41 PM 36.1881 -80.9361 355° North 436 502 25,100 2,169 Climbing Atlanta Center
Mon 07:48:41 PM 36.3114 -80.9494 355° North 436 502 27,000 2,000 Climbing Atlanta Center
Mon 07:49:41 PM 36.4411 -80.9625 355° North 461 531 29,100 1,500 Climbing Atlanta Center
Mon 07:50:41 PM 36.5686 -80.9758 355° North 461 531 30,000 450 Climbing Atlanta Center
Mon 07:51:41 PM 36.6942 -80.9942 353° North 457 526 30,000 486 Level Atlanta Center
Mon 07:53:46 PM 36.9494 -81.0258 354° North 478 550 31,500 642 Climbing Indianapolis Center
Mon 07:54:48 PM 37.1067 -81.0444 355° North 483 556 32,000 244 Climbing Indianapolis Center
Mon 07:55:49 PM 37.2375 -81.0592 355° North 481 554 32,000  Level Indianapolis Center
Mon 07:56:50 PM 37.3692 -81.0744 355° North 483 556 32,000  Level Indianapolis Center
Mon 07:57:52 PM 37.4989 -81.0903 354° North 480 552 32,000  Level Indianapolis Center
Mon 07:58:53 PM 37.6531 -81.1083 355° North 474 545 32,000  Level Indianapolis Center
Mon 07:59:55 PM 37.7803 -81.1258 354° North 472 543 32,000  Level Indianapolis Center
Mon 08:00:56 PM 37.9053 -81.1700 344° North 467 537 32,000  Level Indianapolis Center
Mon 08:01:58 PM 38.0294 -81.2161 344° North 463 533 32,000  Level Indianapolis Center
Mon 08:02:59 PM 38.1525 -81.2639 343° North 463 533 32,000  Level Indianapolis Center
Mon 08:04:00 PM 38.2764 -81.3092 344° North 464 534 32,000  Level Indianapolis Center
Mon 08:05:02 PM 38.3989 -81.3553 344° North 461 531 32,000  Level Indianapolis Center
Mon 08:06:03 PM 38.5214 -81.4019 343° North 461 531 32,000  Level Indianapolis Center
Mon 08:07:05 PM 38.6589 -81.4531 344° North 457 526 32,000  Level Indianapolis Center
Mon 08:08:06 PM 38.7814 -81.5036 342° North 459 528 32,000  Level Indianapolis Center
Mon 08:09:07 PM 38.9022 -81.5467 345° North 457 526 32,000  Level Indianapolis Center
Mon 08:10:09 PM 39.0233 -81.5936 343° North 456 525 32,000  Level Indianapolis Center
Mon 08:11:10 PM 39.1431 -81.6397 343° North 451 519 32,000  Level Indianapolis Center
Mon 08:12:12 PM 39.2633 -81.6864 343° North 451 519 32,000  Level Indianapolis Center
Mon 08:13:13 PM 39.4058 -81.7419 343° North 446 513 32,000  Level Indianapolis Center
Mon 08:14:14 PM 39.5239 -81.7897 343° North 446 513 32,000  Level Indianapolis Center
Mon 08:15:16 PM 39.6428 -81.8356 343° North 445 512 32,000  Level Indianapolis Center
Mon 08:16:17 PM 39.7708 -81.8742 347° North 444 511 32,000 -49 Level Indianapolis Center
Mon 08:17:19 PM 39.8969 -81.8947 353° North 451 519 31,900 -195 Descending Indianapolis Center
Mon 08:18:20 PM 40.0225 -81.9183 352° North 453 521 31,600 -390 Descending Indianapolis Center
Mon 08:19:22 PM 40.1481 -81.9394 353° North 452 520 31,100 -439 Descending Indianapolis Center
Mon 08:20:23 PM 40.2656 -81.9617 352° North 448 516 30,700 -443 Descending Indianapolis Center
Mon 08:21:24 PM 40.3889 -81.9839 352° North 444 511 30,200 -341 Descending Indianapolis Center
Mon 08:22:26 PM 40.5114 -82.0069 352° North 442 509 30,000 -99 Descending Indianapolis Center
Mon 08:23:25 PM 40.6331 -82.0414 348° North 448 516 30,000  Level Cleveland Center
Mon 08:24:25 PM 40.7364 -82.1231 329° Northwest 432 497 30,000 -500 Level Cleveland Center
Mon 08:25:25 PM 40.8433 -82.2244 324° Northwest 432 497 29,000 -1,000 Descending Cleveland Center
Mon 08:26:25 PM 40.9419 -82.3203 324° Northwest 437 503 28,000 -1,000 Descending Cleveland Center
Mon 08:27:25 PM 41.0406 -82.4111 325° Northwest 437 503 27,000 -1,000 Descending Cleveland Center
Mon 08:28:25 PM 41.1350 -82.5019 324° Northwest 425 489 26,000 -1,000 Descending Cleveland Center
Mon 08:29:25 PM 41.2272 -82.5931 323° Northwest 425 489 25,000 -1,050 Descending Cleveland Center
Mon 08:30:25 PM 41.3217 -82.6817 325° Northwest 425 489 23,900 -1,850 Descending Cleveland Center
Mon 08:31:25 PM 41.4136 -82.7706 324° Northwest 420 483 21,300 -2,650 Descending Cleveland Center
Mon 08:32:25 PM 41.4975 -82.8564 323° Northwest 389 448 18,600 -2,450 Descending Cleveland Center
Mon 08:33:25 PM 41.5753 -82.9286 325° Northwest 386 444 16,400 -2,531 Descending Cleveland Center
Mon 08:34:33 PM 41.6775 -83.0297 324° Northwest 363 418 13,200 -2,200 Descending Cleveland Center
Mon 08:35:25 PM 41.7450 -83.0878 327° Northwest 368 423 12,000 -643 Descending Cleveland Center
Mon 08:36:25 PM 41.8250 -83.1494 330° Northwest 346 398 12,000  Level Cleveland Center
Mon 08:37:25 PM 41.8886 -83.1967 331° Northwest 334 384 12,000  Level Cleveland Center
Mon 08:38:25 PM 41.9869 -83.2706 331° Northwest 328 377 12,000  Level Cleveland Center
Mon 08:39:25 PM 42.0647 -83.3297 331° Northwest 328 377 12,000  Level Cleveland Center
Mon 08:40:19 PM 42.1292 -83.3078 14° North 260 299 12,000 -81 Level FAA TRACON SMA TRACON (SMA)
Mon 08:40:39 PM 42.1492 -83.2961 23° Northeast 258 297 11,900 -900 Descending FAA TRACON SMA TRACON (SMA)
Mon 08:40:59 PM 42.1739 -83.2806 25° Northeast 258 297 11,400 -1,350 Descending FAA TRACON SMA TRACON (SMA)
Mon 08:41:19 PM 42.1917 -83.2636 35° Northeast 252 290 11,000 -1,171 Descending FAA TRACON SMA TRACON (SMA)
Mon 08:41:40 PM 42.2097 -83.2483 32° Northeast 253 291 10,600 -1,317 Descending FAA TRACON SMA TRACON (SMA)
Mon 08:42:00 PM 42.2322 -83.2283 33° Northeast 253 291 10,100 -1,200 Descending FAA TRACON SMA TRACON (SMA)
Mon 08:42:20 PM 42.2497 -83.2128 33° Northeast 249 287 9,800 -1,200 Descending FAA TRACON SMA TRACON (SMA)
Mon 08:42:40 PM 42.2672 -83.1972 33° Northeast 247 284 9,300 -1,538 Descending FAA TRACON SMA TRACON (SMA)
Mon 08:42:59 PM 42.2894 -83.1778 33° Northeast 247 284 8,800 -1,421 Descending FAA TRACON SMA TRACON (SMA)
Mon 08:43:18 PM 42.3056 -83.1578 43° Northeast 260 299 8,400 -1,050 Descending FAA TRACON SMA TRACON (SMA)
Mon 08:43:39 PM 42.3211 -83.1389 42° Northeast 248 285 8,100 -1,350 Descending FAA TRACON SMA TRACON (SMA)
Mon 08:43:58 PM 42.3439 -83.1217 29° Northeast 262 302 7,500 -1,800 Descending FAA TRACON SMA TRACON (SMA)
Mon 08:44:19 PM 42.3639 -83.1261 351° North 245 282 6,900 -1,350 Descending FAA TRACON SMA TRACON (SMA)
Mon 08:44:38 PM 42.3764 -83.1453 311° West 206 237 6,600 -1,050 Descending FAA TRACON SMA TRACON (SMA)
Mon 08:44:59 PM 42.3772 -83.1717 272° West 184 212 6,200 -1,317 Descending FAA TRACON SMA TRACON (SMA)
Mon 08:45:19 PM 42.3711 -83.1933 249° West 170 196 5,700 -1,692 Descending FAA TRACON SMA TRACON (SMA)
Mon 08:45:38 PM 42.3653 -83.2125 248° West 166 191 5,100 -1,950 Descending FAA TRACON SMA TRACON (SMA)
Mon 08:45:59 PM 42.3575 -83.2286 237° Southwest 160 184 4,400 -1,800 Descending FAA TRACON SMA TRACON (SMA)
Mon 08:46:18 PM 42.3467 -83.2392 216° Southwest 162 186 3,900 -1,692 Descending FAA TRACON SMA TRACON (SMA)
Mon 08:46:38 PM 42.3322 -83.2497 208° Southwest 168 193 3,300 -1,463 Descending FAA TRACON SMA TRACON (SMA)
Mon 08:46:59 PM 42.3172 -83.2614 210° Southwest 167 192 2,900 -900 Descending FAA TRACON SMA TRACON (SMA)
Mon 08:47:18 PM 42.3056 -83.2711 212° Southwest 170 196 2,700 -900 Descending FAA TRACON SMA TRACON (SMA)
Mon 08:47:39 PM 42.2900 -83.2819 207° Southwest 170 196 2,300 -900 Descending FAA TRACON SMA TRACON (SMA)
Mon 08:47:58 PM 42.2786 -83.2908 210° Southwest 147 169 2,100 -900 Descending FAA TRACON SMA TRACON (SMA)
Mon 08:48:19 PM 42.2667 -83.3003 210° Southwest 130 150 1,700 -1,143 Descending FAA TRACON SMA TRACON (SMA)

Login

Don't have an account? Register now (free) for customized features, flight alerts, and more!